This is the latest recevied weather packets stored in our database for station/object W1REE. If no packets are shown the sender has not sent any weather packets the latest 10 day(s).
| Time | Temp. | Humidity | Pressure | Rain* | Wind** | Luminosity | Snow |
|---|---|---|---|---|---|---|---|
| 1778178009 | 20° C | 17% | 1018.4 hPa | 0 mm | - | 1132 W/m² | - |
| 1778177706 | 20° C | 18% | 1018.4 hPa | 0 mm | - | 1100 W/m² | - |
| 1778177402 | 20° C | 21% | 1018.9 hPa | 0 mm | - | 1076 W/m² | - |
| 1778177099 | 18.89° C | 16% | 1018.9 hPa | 0 mm | - | 1037 W/m² | - |
| 1778176795 | 18.89° C | 19% | 1019 hPa | 0 mm | - | 1044 W/m² | - |
| 1778176492 | 18.89° C | 16% | 1019.2 hPa | 0 mm | - | 1056 W/m² | - |
| 1778176189 | 19.44° C | 16% | 1019.3 hPa | 0 mm | - | 1056 W/m² | - |
| 1778175886 | 19.44° C | 17% | 1019.2 hPa | 0 mm | - | 1044 W/m² | - |
| 1778175584 | 18.33° C | 16% | 1019.2 hPa | 0 mm | - | 1033 W/m² | - |
| 1778175281 | 18.33° C | 17% | 1019 hPa | 0 mm | - | 1028 W/m² | - |
| 1778174978 | 18.89° C | 14% | 1019.3 hPa | 0 mm | - | 943 W/m² | - |
| 1778174674 | 18.89° C | 20% | 1019.4 hPa | 0 mm | - | 963 W/m² | - |
| 1778174371 | 18.89° C | 20% | 1019.4 hPa | 0 mm | - | 1004 W/m² | - |
| 1778174067 | 18.33° C | 17% | 1019.6 hPa | 0 mm | - | 996 W/m² | - |
| 1778173764 | 17.78° C | 18% | 1019.6 hPa | 0 mm | - | 988 W/m² | - |
| 1778173460 | 18.33° C | 19% | 1019.5 hPa | 0 mm | - | 972 W/m² | - |
| 1778173157 | 17.78° C | 17% | 1019.9 hPa | 0 mm | - | 921 W/m² | - |
| 1778172853 | 17.22° C | 19% | 1019.9 hPa | 0 mm | - | 935 W/m² | - |
| 1778172549 | 17.78° C | 19% | 1020 hPa | 0 mm | - | 926 W/m² | - |
| 1778172246 | 17.78° C | 20% | 1019.6 hPa | 0 mm | - | 934 W/m² | - |
| 1778171943 | 17.78° C | 22% | 1020.1 hPa | 0 mm | - | 847 W/m² | - |
| 1778171641 | 17.78° C | 21% | 1020 hPa | 0 mm | - | 864 W/m² | - |
| 1778171337 | 16.67° C | 19% | 1019.9 hPa | 0 mm | - | 850 W/m² | - |
| 1778171032 | 17.22° C | 20% | 1020.1 hPa | 0 mm | - | 665 W/m² | - |
| 1778170730 | 17.22° C | 20% | 1020.2 hPa | 0 mm | - | 768 W/m² | - |
* Rain latest hour (hover to see other rain measurements)
** Current wind speed in m/s (hover to see current wind gust speed)